Location: Bremen
(53.0793°N, 8.8017°E)
Time: 18:35:11
(UTC+02:00)

SR - Visible Passes

Search period start: 13 April 2024 00:00
Search period end: 23 April 2024 00:00
Orbit: 577 x 864 km, 66.7° (Epoch: 12 April)

Date Brightness Start Highest point End Pass type
(mag) Time Alt. Az. Time Alt. Az. Time Alt. Az.
13 Apr ? 04:30:35 12° S 04:35:11 34° ESE 04:39:52 10° NE visible
14 Apr ? 03:40:11 12° SSE 03:43:29 20° ESE 03:47:11 10° ENE visible
14 Apr ? 05:19:26 11° SW 05:24:50 87° SE 05:29:59 10° NE visible
15 Apr ? 02:51:34 10° ESE 02:51:57 10° ESE 02:52:19 10° E visible
15 Apr ? 04:28:58 18° S 04:32:51 51° ESE 04:37:51 10° NE visible
16 Apr ? 03:38:25 20° SSE 03:41:02 29° ESE 03:45:28 10° NE visible
16 Apr ? 05:17:40 12° SW 05:22:41 66° NW 05:27:43 10° NE visible
17 Apr ? 02:47:50 15° SE 02:49:21 16° ESE 02:52:33 10° ENE visible
17 Apr ? 04:27:04 23° SSW 04:30:34 76° SE 04:35:41 10° NE visible
18 Apr ? 03:36:25 29° S 03:38:37 44° ESE 03:43:29 10° NE visible
18 Apr ? 05:15:39 11° WSW 05:20:34 47° NW 05:25:25 10° NE visible
19 Apr ? 02:45:43 23° SE 02:46:48 25° ESE 02:50:59 10° ENE visible
19 Apr ? 04:24:57 23° SW 04:28:21 75° NW 04:33:25 10° NE visible
20 Apr ? 01:54:58 14° ESE 01:55:09 14° ESE 01:57:43 10° ENE visible
20 Apr ? 03:34:12 37° SSW 03:36:17 66° SE 03:41:19 10° NE visible
20 Apr ? 05:13:38 10° W 05:18:31 35° NW 05:23:04 10° NNE visible
21 Apr ? 02:43:24 34° SE 02:44:21 37° ESE 02:49:03 10° NE visible
21 Apr ? 04:22:38 20° WSW 04:26:11 53° NW 04:31:04 10° NE visible
22 Apr ? 01:52:34 21° ESE 01:52:34 21° ESE 01:56:24 10° ENE visible
22 Apr ? 03:31:47 37° SW 03:34:00 86° NW 03:39:02 10° NE visible
22 Apr ? 05:12:01 10° W 05:16:30 27° NNW 05:20:41 10° NNE visible
